Weather History for Liberia, Costa Rica

Change the Weather History Date:

Tuesday, November 13, 2012

  Actual Average Record
Temperature  
Mean Temperature 81 °F -  
Max Temperature 91 °F 86 °F - ()
Min Temperature 71 °F 72 °F - ()
Cooling Degree Days 16    
Growing Degree Days 31 (Base 50)    
Moisture  
Dew Point 70 °F    
Average Humidity 64    
Maximum Humidity 88    
Minimum Humidity 43    
Precipitation  
Precipitation 0.00 in - - ()
Sea Level Pressure  
Sea Level Pressure 29.85 in    
Wind  
Wind Speed 9 mph ()    
Max Wind Speed 21 mph    
Max Gust Speed -    
Visibility 7.8 miles    
Events Rain    
T = Trace of Precipitation, MM = Missing Value Source: Averaged Metar Reports

Daily Weather History Graph

Daily Weather History Graph

Search for Another Location

Airport:

Trip Planner

Search our weather history database for the weather conditions in past years. The results will help you decide how hot, cold, wet, or windy it might be!

Date:

Astronomy

Nov. 13, 2012 Rise Set
Actual Time 5:36 AM CST 5:15 PM CST
Civil Twilight 5:14 AM CST 5:38 PM CST
Nautical Twilight 4:49 AM CST 6:03 PM CST
Astronomical Twilight 4:23 AM CST 6:29 PM CST
Moon 5:13 AM CST (11/13) 5:13 PM CST (11/13)
Length of Visible Light 12h 23m
Length of Day
11h 39m
Waning Crescent, 0% of the Moon is Illuminated
Nov 13
Waning Crescent
Nov 13
New
Nov 20
First Quarter
Nov 28
Full
Dec 6
Last Quarter

Hourly Weather History & Observations

Time (CST) Temp. Heat Index Dew Point Humidity Pressure Visibility Wind Dir Wind Speed Gust Speed Precip Events Conditions
6:00 AM 73 °F - 69 °F 84% 29.86 in 12 mi WSW 3.5 mph - -   Scattered Clouds
6:00 AM 73.4 °F - 69.8 °F 88% 29.85 in 6.2 mi WSW 3.5 mph - N/A   Partly Cloudy
7:00 AM 77.0 °F - 69.8 °F 78% 29.88 in 6.2 mi South 5.8 mph - N/A   Partly Cloudy
8:00 AM 82.4 °F 86.3 °F 69.8 °F 66% 29.88 in 6.2 mi ENE 15.0 mph - N/A   Partly Cloudy
9:00 AM 85 °F - 71 °F 55% 29.92 in 12 mi West 6.9 mph - -   Scattered Clouds
9:00 AM 84.2 °F 89.6 °F 71.6 °F 66% 29.91 in 6.2 mi West 6.9 mph - N/A   Partly Cloudy
10:00 AM 86.0 °F 90.4 °F 69.8 °F 58% 29.89 in 6.2 mi ENE 20.7 mph - N/A   Partly Cloudy
11:00 AM 87.8 °F 92.6 °F 69.8 °F 55% 29.88 in 6.2 mi ENE 19.6 mph - N/A   Scattered Clouds
12:00 PM 88 °F - 69 °F 43% 29.86 in 12 mi ENE 19.6 mph - -   Partly Cloudy
12:00 PM 87.8 °F 91.4 °F 68.0 °F 52% 29.85 in 6.2 mi ENE 19.6 mph - N/A   Scattered Clouds
1:00 PM 89.6 °F 93.4 °F 68.0 °F 49% 29.81 in 6.2 mi ENE 18.4 mph - N/A   Scattered Clouds
2:00 PM 87.8 °F 93.8 °F 71.6 °F 58% 29.80 in 6.2 mi NNW 8.1 mph - N/A   Scattered Clouds
3:00 PM 83 °F - 71 °F 60% 29.81 in 12 mi South 5.8 mph - - Rain Light Rain
3:00 PM 82.4 °F 87.2 °F 71.6 °F 70% 29.80 in 6.2 mi South 5.8 mph - N/A Rain Light Rain
4:00 PM 80.6 °F 84.6 °F 71.6 °F 74% 29.79 in 6.2 mi ENE 11.5 mph - N/A   Scattered Clouds
5:00 PM 80.6 °F 83.9 °F 69.8 °F 70% 29.80 in 6.2 mi East 13.8 mph - N/A   Scattered Clouds
6:00 PM 81 °F - 67 °F 53% 29.82 in 12 mi ENE 17.3 mph - -   Scattered Clouds
6:00 PM 80.6 °F 82.7 °F 66.2 °F 61% 29.80 in 6.2 mi ENE 17.3 mph - N/A   Scattered Clouds
7:00 PM 80.6 °F 83.2 °F 68.0 °F 65% 29.84 in - ENE 16.1 mph - N/A   Clear
8:00 PM 78.8 °F - 68.0 °F 69% 29.87 in - East 13.8 mph - N/A   Clear